Location: Brede
(50.9167°N, 0.6000°E)
Time: 03:03:29
(UTC+00:00)

Cosmos 2344 - Pass Details

Date: 08 August 2020
Orbit: 1247 x 2995 km, 63.3° (Epoch: 25 September)

Event Time Altitude Azimuth Distance (km) Brightness Sun altitude
Rises 01:31:39 0° 316° (NW) 4,587 6.8 -20.3°
Reaches altitude 10° 01:34:17 10° 313° (NW) 3,745 6.3 -20.1°
Maximum altitude 01:43:35 67° 234° (SW) 2,049 4.4 -19.5°
Drops below altitude 10° 01:56:31 10° 157° (SSE) 5,084 6.3 -18.6°
Sets 02:00:44 0° 155° (SSE) 6,310 6.9 -18.3°
